Time,TemperatureF,DewpointF,PressureIn,WindDirection,WindDirectionDegrees,WindSpeedMPH,WindSpeedGustMPH,Humidity,HourlyPrecipIn,Conditions,Clouds,dailyrainin,SoftwareType,DateUTC
2013-09-24 00:14:00,60.0,56.0,30.02,NW,324,0.0,0.0,88,0.00,,,0.00,,2013-09-24 04:14:00,
2013-09-24 00:24:00,60.0,56.0,30.02,NW,324,0.0,0.0,88,0.00,,,0.00,,2013-09-24 04:24:00,
2013-09-24 00:54:00,59.0,55.0,30.02,NW,324,0.0,0.0,88,0.00,,,0.00,,2013-09-24 04:54:00,
2013-09-24 01:13:00,59.0,56.0,30.02,NW,324,0.0,0.0,89,0.00,,,0.00,,2013-09-24 05:13:00,
2013-09-24 01:23:00,59.0,55.0,30.03,NW,324,0.0,0.0,88,0.00,,,0.00,,2013-09-24 05:23:00,
2013-09-24 01:53:00,59.0,56.0,30.02,NW,324,0.0,0.0,89,0.00,,,0.00,,2013-09-24 05:53:00,
2013-09-24 02:13:00,59.0,55.0,30.02,NW,324,0.0,0.0,87,0.00,,,0.00,,2013-09-24 06:13:00,
2013-09-24 02:22:00,59.0,55.0,30.02,NW,324,0.0,0.0,87,0.00,,,0.00,,2013-09-24 06:22:00,
2013-09-24 02:32:00,59.0,55.0,30.02,NW,324,0.0,0.0,87,0.00,,,0.00,,2013-09-24 06:32:00,
2013-09-24 02:52:00,58.0,54.0,30.02,NW,324,0.0,0.0,88,0.00,,,0.00,,2013-09-24 06:52:00,
2013-09-24 03:12:00,57.0,54.0,30.02,NW,324,0.0,1.0,89,0.00,,,0.00,,2013-09-24 07:12:00,
2013-09-24 03:22:00,57.0,54.0,30.02,NW,324,0.0,0.0,89,0.00,,,0.00,,2013-09-24 07:22:00,
2013-09-24 03:52:00,57.0,53.0,30.02,NW,324,0.0,0.0,87,0.00,,,0.00,,2013-09-24 07:52:00,
2013-09-24 04:11:00,56.0,53.0,30.02,NW,324,0.0,0.0,89,0.00,,,0.00,,2013-09-24 08:11:00,
2013-09-24 04:23:00,56.0,53.0,30.01,NW,324,0.0,0.0,90,0.00,,,0.00,,2013-09-24 08:23:00,
2013-09-24 04:42:00,55.0,52.0,30.01,NW,324,0.0,0.0,90,0.00,,,0.00,,2013-09-24 08:42:00,
2013-09-24 04:52:00,55.0,52.0,30.01,NW,324,0.0,0.0,90,0.00,,,0.00,,2013-09-24 08:52:00,
2013-09-24 05:12:00,55.0,52.0,30.01,NW,324,0.0,0.0,90,0.00,,,0.00,,2013-09-24 09:12:00,
2013-09-24 05:22:00,55.0,52.0,30.01,NW,324,0.0,0.0,90,0.00,,,0.00,,2013-09-24 09:22:00,
2013-09-24 05:33:00,55.0,52.0,30.01,NW,324,0.0,0.0,90,0.00,,,0.00,,2013-09-24 09:33:00,
2013-09-24 05:43:00,55.0,52.0,30.01,NW,324,0.0,0.0,90,0.00,,,0.00,,2013-09-24 09:43:00,
2013-09-24 06:23:00,54.0,51.0,30.01,NW,324,0.0,0.0,91,0.00,,,0.00,,2013-09-24 10:23:00,
2013-09-24 06:33:00,54.0,51.0,30.01,NW,324,0.0,0.0,91,0.00,,,0.00,,2013-09-24 10:33:00,
2013-09-24 06:53:00,54.0,52.0,30.02,NW,324,0.0,0.0,92,0.00,,,0.00,,2013-09-24 10:53:00,
2013-09-24 07:22:00,54.0,52.0,30.03,NW,324,0.0,0.0,92,0.00,,,0.00,,2013-09-24 11:22:00,
2013-09-24 07:52:00,54.0,52.0,30.03,NW,324,0.0,0.0,93,0.00,,,0.00,,2013-09-24 11:52:00,
2013-09-24 08:01:00,54.0,52.0,30.03,NW,324,0.0,0.0,93,0.00,,,0.00,,2013-09-24 12:01:00,
2013-09-24 08:12:00,54.0,52.0,30.03,NW,324,0.0,0.0,93,0.00,,,0.00,,2013-09-24 12:12:00,
2013-09-24 08:22:00,54.0,52.0,30.03,NW,324,0.0,0.0,93,0.00,,,0.00,,2013-09-24 12:22:00,
2013-09-24 08:42:00,55.0,53.0,30.03,NW,324,0.0,0.0,93,0.00,,,0.00,,2013-09-24 12:42:00,
2013-09-24 08:52:00,55.0,53.0,30.03,NW,324,0.0,0.0,93,0.00,,,0.00,,2013-09-24 12:52:00,
2013-09-24 09:11:00,54.0,52.0,30.03,NW,324,0.0,0.0,92,0.00,,,0.00,,2013-09-24 13:11:00,
2013-09-24 09:22:00,55.0,53.0,30.03,NW,324,0.0,0.0,92,0.00,,,0.00,,2013-09-24 13:22:00,
2013-09-24 09:32:00,55.0,53.0,30.03,NW,324,0.0,0.0,92,0.00,,,0.00,,2013-09-24 13:32:00,
2013-09-24 09:52:00,56.0,54.0,30.03,WNW,284,0.0,0.0,92,0.00,,,0.00,,2013-09-24 13:52:00,
2013-09-24 10:12:00,58.0,55.0,30.02,SW,223,0.0,0.0,89,0.00,,,0.00,,2013-09-24 14:12:00,
2013-09-24 10:21:00,59.0,56.0,30.02,SSW,207,0.0,0.0,89,0.00,,,0.00,,2013-09-24 14:21:00,
2013-09-24 10:52:00,60.0,56.0,30.02,SSW,192,0.0,0.0,87,0.00,,,0.00,,2013-09-24 14:52:00,
2013-09-24 11:22:00,63.0,58.0,30.01,SSE,152,0.0,0.0,83,0.00,,,0.00,,2013-09-24 15:22:00,
2013-09-24 11:43:00,65.0,58.0,30.00,ESE,120,0.0,1.0,77,0.00,,,0.00,,2013-09-24 15:43:00,
2013-09-24 11:53:00,65.0,58.0,30.00,South,191,0.0,0.0,78,0.00,,,0.00,,2013-09-24 15:53:00,
2013-09-24 12:13:00,65.0,59.0,30.00,SE,140,0.0,0.0,80,0.00,,,0.00,,2013-09-24 16:13:00,
2013-09-24 12:23:00,64.0,57.0,30.00,WSW,240,0.0,0.0,77,0.00,,,0.00,,2013-09-24 16:23:00,
2013-09-24 12:43:00,64.0,57.0,30.00,South,183,0.0,0.0,78,0.00,,,0.00,,2013-09-24 16:43:00,
2013-09-24 12:53:00,65.0,59.0,30.00,SSW,205,0.0,0.0,80,0.00,,,0.00,,2013-09-24 16:53:00,
2013-09-24 13:13:00,66.0,58.0,29.98,South,190,0.0,0.0,76,0.00,,,0.00,,2013-09-24 17:13:00,
2013-09-24 13:23:00,66.0,59.0,29.98,South,180,0.0,0.0,78,0.00,,,0.00,,2013-09-24 17:23:00,
2013-09-24 13:33:00,66.0,59.0,29.98,South,180,0.0,0.0,78,0.00,,,0.00,,2013-09-24 17:33:00,
2013-09-24 13:54:00,68.0,60.0,29.97,SW,217,0.0,0.0,75,0.00,,,0.00,,2013-09-24 17:54:00,
2013-09-24 14:12:00,68.0,59.0,29.96,South,180,0.0,0.0,72,0.00,,,0.00,,2013-09-24 18:12:00,
2013-09-24 14:22:00,68.0,59.0,29.96,South,180,0.0,0.0,72,0.00,,,0.00,,2013-09-24 18:22:00,
2013-09-24 14:53:00,68.0,60.0,29.93,ESE,118,0.0,0.0,76,0.00,,,0.00,,2013-09-24 18:53:00,
2013-09-24 15:11:00,69.0,61.0,29.93,West,269,0.0,0.0,76,0.00,,,0.00,,2013-09-24 19:11:00,
2013-09-24 15:22:00,69.0,61.0,29.93,West,269,0.0,0.0,76,0.00,,,0.00,,2013-09-24 19:22:00,
2013-09-24 15:32:00,69.0,61.0,29.93,West,269,0.0,0.0,76,0.00,,,0.00,,2013-09-24 19:32:00,
2013-09-24 16:22:00,68.0,62.0,29.90,SSW,206,0.0,0.0,81,0.00,,,0.00,,2013-09-24 20:22:00,
2013-09-24 16:52:00,68.0,62.0,29.90,SSW,206,0.0,0.0,82,0.00,,,0.00,,2013-09-24 20:52:00,
2013-09-24 17:22:00,68.0,63.0,29.91,SSW,196,0.0,1.0,83,0.00,,,0.00,,2013-09-24 21:22:00,
2013-09-24 17:43:00,67.0,62.0,29.90,NW,305,0.0,0.0,83,0.00,,,0.00,,2013-09-24 21:43:00,
2013-09-24 17:54:00,67.0,62.0,29.90,SW,230,0.0,0.0,84,0.00,,,0.00,,2013-09-24 21:54:00,
2013-09-24 18:23:00,65.0,60.0,29.90,SW,225,0.0,1.0,84,0.00,,,0.00,,2013-09-24 22:23:00,
2013-09-24 18:34:00,65.0,60.0,29.90,SW,225,0.0,1.0,84,0.00,,,0.00,,2013-09-24 22:34:00,
2013-09-24 18:53:00,64.0,59.0,29.91,SSW,199,0.0,0.0,85,0.00,,,0.00,,2013-09-24 22:53:00,
2013-09-24 19:22:00,64.0,60.0,29.91,South,171,0.0,0.0,87,0.00,,,0.00,,2013-09-24 23:22:00,
2013-09-24 19:53:00,63.0,59.0,29.90,South,171,0.0,0.0,88,0.00,,,0.00,,2013-09-24 23:53:00,
2013-09-24 20:12:00,63.0,59.0,29.90,West,281,0.0,3.0,88,0.00,,,0.00,,2013-09-25 00:12:00,
2013-09-24 20:22:00,63.0,59.0,29.90,SW,215,0.0,3.0,88,0.00,,,0.00,,2013-09-25 00:22:00,
2013-09-24 20:33:00,63.0,59.0,29.90,SW,215,0.0,3.0,88,0.00,,,0.00,,2013-09-25 00:33:00,
2013-09-24 20:42:00,63.0,59.0,29.90,SW,215,0.0,3.0,88,0.00,,,0.00,,2013-09-25 00:42:00,
2013-09-24 20:52:00,63.0,59.0,29.90,SSW,192,0.0,0.0,88,0.00,,,0.00,,2013-09-25 00:52:00,
2013-09-24 21:12:00,63.0,59.0,29.91,SW,233,0.0,1.0,88,0.00,,,0.00,,2013-09-25 01:12:00,
2013-09-24 21:21:00,62.0,58.0,29.91,SW,227,0.0,3.0,88,0.00,,,0.00,,2013-09-25 01:21:00,
2013-09-24 21:32:00,62.0,58.0,29.91,SW,227,0.0,3.0,88,0.00,,,0.00,,2013-09-25 01:32:00,
2013-09-24 21:42:00,62.0,58.0,29.91,SW,227,0.0,3.0,88,0.00,,,0.00,,2013-09-25 01:42:00,
2013-09-24 21:52:00,62.0,58.0,29.91,SW,227,0.0,3.0,88,0.00,,,0.00,,2013-09-25 01:52:00,
2013-09-24 22:12:00,62.0,59.0,29.92,SSW,193,0.0,0.0,89,0.00,,,0.00,,2013-09-25 02:12:00,
2013-09-24 22:22:00,62.0,59.0,29.92,SSW,193,0.0,0.0,89,0.00,,,0.00,,2013-09-25 02:22:00,
2013-09-24 22:42:00,62.0,58.0,29.92,SSW,202,0.0,0.0,88,0.00,,,0.00,,2013-09-25 02:42:00,
2013-09-24 22:52:00,62.0,58.0,29.92,SSW,202,0.0,0.0,88,0.00,,,0.00,,2013-09-25 02:52:00,
2013-09-24 23:11:00,62.0,59.0,29.91,SSW,202,0.0,0.0,89,0.00,,,0.00,,2013-09-25 03:11:00,
2013-09-24 23:23:00,62.0,59.0,29.91,SSW,202,0.0,0.0,89,0.00,,,0.00,,2013-09-25 03:23:00,
2013-09-24 23:45:00,62.0,59.0,29.91,SE,131,0.0,0.0,89,0.00,,,0.00,,2013-09-25 03:45:00,
2013-09-24 23:55:00,62.0,59.0,29.91,SSE,164,0.0,1.0,89,0.00,,,0.00,,2013-09-25 03:55:00,